Regional Weather Roundup
Issued by NWS

Home | Current Version | Previous Version | Graphics & Text | Print | Product List | Glossary On
Versions: 1 2 3 4 5 6 7 8 9 10 11 12 13 14 15 16 17 18 19 20 21 22 23 24 25 26 27 28 29 30 31 32 33 34 35 36 37 38 39 40 41 42 43 44 45 46 47 48 49 50
714
ASUS43 KFSD 260010
RWRSD

WEATHER ROUNDUP FOR SOUTH DAKOTA
NATIONAL WEATHER SERVICE SIOUX FALLS SD
700 PM CDT THU AUG 25 2016

NOTE: "FAIR" INDICATES FEW OR NO CLOUDS BELOW 12,000 FEET WITH NO
SIGNIFICANT WEATHER AND/OR OBSTRUCTIONS TO VISIBILITY.


SDZ001>005-009-010-012>017-260100-
NORTHWEST AND NORTH CENTRAL SOUTH DAKOTA

CITY           SKY/WX    TMP DP  RH WIND       PRES   REMARKS
BUFFALO          N/A     68  39  34 NW9       30.12F
FAITH            N/A     67  43  41 NE5       30.18F
MOBRIDGE       SUNNY     69  47  45 NW7       30.14F
$$

SDZ012>016-024>037-041>051-057-063-072>074-260100-
SOUTHWEST AND SOUTH CENTRAL SOUTH DAKOTA

CITY           SKY/WX    TMP DP  RH WIND       PRES   REMARKS
RAPID CTY ARPT CLOUDY    67  40  37 NW3       30.21S
PIERRE         SUNNY     69  46  43 N16       30.14S
CUSTER         CLOUDY    54  46  74 SE7       30.27F
ELLSWORTH AFB  MOSUNNY   66  43  44 SE1       30.20S
PHILIP         PTSUNNY   71  44  37 N10       30.17S
PINE RIDGE     CLOUDY    65  49  56 CALM      30.21F
WINNER         FAIR      73  46  38 NW10      30.16F
$$

SDZ004>011-016>023-039-040-260100-
NORTHEAST SOUTH DAKOTA

CITY           SKY/WX    TMP DP  RH WIND       PRES   REMARKS
ABERDEEN       CLOUDY    66  53  63 NW5       30.13F
WATERTOWN      SUNNY     67  49  52 NW12      30.12F
BROOKINGS      SUNNY     68  53  58 NW10      30.12S
SISSETON         N/A     66  54  65 NW6       30.10F
$$

SDZ017-020-022-023-036>040-048>070-260100-
SOUTHEAST SOUTH DAKOTA

CITY           SKY/WX    TMP DP  RH WIND       PRES   REMARKS
SIOUX FALLS    MOSUNNY   73  54  51 NW7       30.12F
HURON          MOSUNNY   68  51  54 N8        30.13R
CHAMBERLAIN    SUNNY     74  49  41 N5        30.14F
MITCHELL       SUNNY     73  49  42 W9        30.13S
YANKTON        SUNNY     73  52  46 NW10      30.11F
$$

ABBREVIATIONS USED IN REMARKS
   TC - TEMPERATURE IN CELSIUS
  WCI - WIND CHILL INDEX
   HX - HEAT INDEX
  VSB - VISIBILITY





USA.gov is the U.S. government's official web portal to all federal, state and local government web resources and services.